13:09
Airports
History
Links
Donate
Help keep this website running!
PayPal
Bitcoin
This page is community maintained. The information is intended for PC simulator navigation or reference.
Always use approved charts for navigation.
50OI
Beckman Field
Beckman Field (50OI)
Ashville, Ohio, United States (43103)
4
Lat/Lng:39° 44' 33.23" N / 83° 2' 17.66" W
39.742563 / -83.03824
Elevation:760'ft / 232mMSL
ID / ICAO:50OI
Runways:1
Longest:06-24
Grass 579m / 1,901ft
Nearby Weather12:55 GMT 2018-01-17
Nearby weather at KLCK, Rickenbacker Intl located 7.7 nautical miles from 50OI
Altimeter: 30.53
Visibility: 10.0 statute miles
Wind: 4 knots (from 240°)
Temp: -13°c / 9°f
Humidity: 84.8%

METAR: KLCK 171255Z AUTO 24004KT 10SM OVC010 M13/M15 A3053 RMK AO2 T11351150

(Powered by phpweather)
Nearby VORs <50NM
Nearby NDBs
Runway 06 / 24
Dimensions:579.4 x 22.9m 1901' x 75'ft
Surface:Grass
Runway 06 [A]Runway 24 [B]
Heading:055°TH 235°TH
Lat:
Lng:
39° 44' 27.84"N
83° 2' 27.66"W
39° 44' 38.61"N
83° 2' 7.67"W
User Notes and Comments
39° 44' 33.23" N / 83° 2' 17.66" W
Distance To
Airport ID:
Nearby Airports
4 Whites 4.0 NM
63OH SW 227°
(R) Ronshausen 4.4 NM
38OI SSW 204°
(R) Lindsey L.s. 4.9 NM
OH50 SW 219°
(R) Millertime 5.4 NM
4OH4 NW 309°
4 Clarks Dream Strip 6.9 NM
03I S 170°
(C) Rickenbacker Intl 7.7 NM
KLCK ( WX ) NE 50°
(R) Port-o-john 10.5 NM
2OH8 WNW 290°
VFR Chart
Flight Planning at SkyVector.com